Torna al catalogo

FENGYUN 1C DEB

AttivoSSO
NORAD 30371·DEBRIS·🇨🇳 China

Lanciato May 10, 1999 da Taiyuan Satellite Launch Center

Loading…

Prossimi Passaggi (prossime 24 ore)

TLE

AggiornatoSource: Space-Track

Epoca: Sep 14, 2026, 02:26 UTC

1 30371U 99025ACJ 26257.10207677  .00001436  00000-0  55810-3 0  9997
2 30371  98.5522 301.0054 0006849 228.1022 159.1420 14.31380140 18392

Traccia FENGYUN 1C DEB in tempo reale con AllMySat

Download on the App Store